CZ-2D DEB, 44603

Orbit data source: Space-Track

CZ-2D DEB, 44603 is space debris in SSO originally from a launch on Fri, 11 Nov 2016 UTC launched from the Jiuquan Satellite Launch Center, China (JSC). Debris objects in space refer to the collection of defunct objects orbiting the Earth. Examples of debris include non-operational satellites, rocket bodies, and fragments generated from explosions, collisions, or faulty payload assembly.

Loading next visibility...
Identifier
44603, 2016-068C
Orbit
SSO
Country
Flag of CNCN / PRC
Related business
Manufacturer
Unknown
Mission
Spacecraft
Bus & Motor
Unknown
Mass
Unknown
Launch date (UTC)
2016-11-11 (9 years ago)
Launch vehicle
Unknown
Launch site
Jiuquan Satellite Launch Center, China (JSC)
Object type
Payload
Rocket body
Debris
Shape & HBR
Unknown
Radar Cross Section
Small (<0.1 m²)

Expand to show TLE details & history
Last TLE update: 2 days ago

TLE from 2 days ago
0 CZ-2D DEB
1 44603U 16068C   25257.20348521  .00000489  00000-0  33243-3 0  9993
2 44603  98.5416  75.4043 0214286 281.3227  76.3929 13.93907283935674
Epoch: 2025-09-14T04:53Z
TLE epoch observation values (Epoch: 2025-09-14T04:53:01.122Z)
Latitude
-0°
Longitude
8.72377°
Altitude
884.269 km
Speed
7.427 km/s
True Right ascension
05h 01m 37s
True Declination
0° 00' 00"
Sunlit
Object was in daylight at epoch
Visualization orbit readout
Latitude
Unknown
Longitude
Unknown
Altitude
Unknown
Speed
Unknown
Apparent Right ascension
Unknown
Apparent Declination
Unknown
Sunlit
N/A
Visualization observer readout
Local Sidereal Time
14:01:21
Azimuth
Unknown
Elevation
Unknown
Doppler factor
Unknown
Orbital elements
Apogee altitude
1,068.374 km
Perigee altitude
755.933 km
Semi-major axis
7,290.291 km
Eccentricity
0.02143
Inclination
98.5416°
RAAN
75.4043°
Arg. of periapsis
281.3227°
True anomaly
78.79394°
Mean anomaly
76.3929°
Eccentric anomaly
77.59199°
Mean motion
3.48679 °/min
Orbital period
103.25 mins
BSTAR
0.00033243
Loading maneuver chart data...
Computing Atmospheric mass density...
Loading historical data...
Loading historical data...
Loading historical data...
Loading historical data...
Loading historical data...
Loading historical data...
Loading historical data...

Documentation

Showing up to 5 results
|